Regional Weather Roundup
Issued by NWS

Home | Current Version | Previous Version | Graphics & Text | Print | Product List | Glossary On
Versions: 1 2 3 4 5 6 7 8 9 10 11 12 13 14 15 16 17 18 19 20 21 22 23 24 25 26 27 28 29 30 31 32 33 34 35 36 37 38 39 40 41 42 43 44 45 46 47 48 49 50
000
ASUS45 KPSR 222310
RWRAZ

ARIZONA HOURLY REGIONAL WEATHER ROUNDUP
NATIONAL WEATHER SERVICE PHOENIX AZ
400 PM MST SUN APR 22 2018

NOTE: FAIR INDICATES FEW OR NO CLOUDS BELOW 12,000 FEET WITH NO
SIGNIFICANT WEATHER AND/OR OBSTRUCTIONS TO VISIBILITY.

AZZ001>003-036-230000-
NORTHWEST ARIZONA

CITY           SKY/WX    TMP DP  RH WIND       PRES   REMARKS
BULLHEAD CITY  SUNNY     97  16   5 VRB6      29.76F
KINGMAN        SUNNY     85  24  11 CALM      29.92F
$$

AZZ004>008-015-016-018-230000-
NORTH CENTRAL ARIZONA

CITY           SKY/WX    TMP DP  RH WIND       PRES   REMARKS
GRAND CANYON   PTSUNNY   72  12  10 SW8G18    30.09F
WILLIAMS       MOSUNNY   72  12  10 S12G21    30.08S
PRESCOTT       MOSUNNY   77  22  13 SW6       30.00F
FLAGSTAFF      SUNNY     69  19  15 SW14      30.11F
PAYSON         MOSUNNY   75  16  10 SW10G22   30.02S
PAGE           SUNNY     79  21  11 NE10      29.96F
$$

AZZ009>014-017-230000-
NORTHEAST ARIZONA

CITY           SKY/WX    TMP DP  RH WIND       PRES   REMARKS
WINSLOW        MOSUNNY   78  15   9 NE10      30.00F
SAINT JOHNS    PTSUNNY   74  20  13 VRB5      30.02F
WINDOW ROCK    PTSUNNY   71  17  12 E5        30.08F
SHOW LOW       PTSUNNY   73  14  10 SW18      30.08F
$$

AZZ540-542>544-546-548-230000-
GREATER PHOENIX AREA

CITY           SKY/WX    TMP DP  RH WIND       PRES   REMARKS
PHOENIX        MOSUNNY   92  26   9 W8        29.78F
BUCKEYE        MOSUNNY   90  32  12 S8        29.81S
GLENDALE       PTSUNNY   93  23   8 S5        29.81F
LUKE AFB       PTSUNNY   92  23   8 S9        29.78F
DEER VALLEY    MOSUNNY   89  23   9 VRB5      29.81F
SCOTTSDALE     MOSUNNY   92  29  10 S3        29.83F
MESA-FALCON    MOSUNNY   91  27   9 W7        29.81F
MESA-GATEWAY   MOSUNNY   91  27   9 SW10      29.82F
$$

AZZ539-553-230000-
SOUTHWEST MARICOPA COUNTY AND PINAL COUNTY

CITY           SKY/WX    TMP DP  RH WIND       PRES   REMARKS
CASA GRANDE    SUNNY     91  23   8 SE7       29.83
GILA BEND      FAIR      93  17   6 W8        29.78F
$$

AZZ503-504-507>509-230000-
SOUTHEAST ARIZONA

CITY           SKY/WX    TMP DP  RH WIND       PRES   REMARKS
TUCSON         MOSUNNY   88  15   6 W5        29.90F
DAVIS-MONTHAN  SUNNY     91  18   7 N7        29.88F
RYAN FIELD     SUNNY     90  18   7 S9        29.88F
NOGALES        MOSUNNY   84  19   9 VRB5      29.96F
SIERRA VISTA   MOSUNNY   83  18   9 NW7       30.00F
DOUGLAS        PTSUNNY   85  21   9 SW17G26   29.95F
SAFFORD        PTSUNNY   84  15   7 S12       29.90F
$$

AZZ532-230000-
SOUTHWEST ARIZONA

CITY           SKY/WX    TMP DP  RH WIND       PRES   REMARKS
YUMA           SUNNY     94  32  11 W9        29.79F
$$

CAZ041-043-047-048-061-525>527-560>570-230000-
SOUTHERN CALIFORNIA

CITY           SKY/WX    TMP DP  RH WIND       PRES   REMARKS
DOWNTOWN L.A.  SUNNY     75  48  38 W5        29.89F
L.A. AIRPORT   SUNNY     67  55  65 SW14      29.90F
SAN DIEGO      MOSUNNY   68  57  68 SW7       29.94F
BURBANK        SUNNY     81  44  27 S10       29.88F
ONTARIO        MOSUNNY   87  43  21 W17G31    29.88F
RIVERSIDE      SUNNY     86  36  16 W22G29    29.87F
PALM SPRINGS   SUNNY     99  18   5 VRB5      29.77F
EL CENTRO NAS  SUNNY     96  17   5 S8        29.78F
IMPERIAL       SUNNY     96  22   7 SW6       29.76F
BLYTHE         SUNNY     95  24   8 CALM      29.77F
NEEDLES        SUNNY     96  12   4 CALM      29.78F
$$

NVZ020-UTZ003-230000-
SOUTHERN NEVADA-UTAH

CITY           SKY/WX    TMP DP  RH WIND       PRES   REMARKS
LAS VEGAS      MOSUNNY   90  21   8 E8        29.84F
SALT LAKE CITY PTSUNNY   76  27  16 VRB5      29.96F
$$

NMZ009-TXZ055-230000-
NEW MEXICO-WEST TEXAS

CITY           SKY/WX    TMP DP  RH WIND       PRES   REMARKS
ALBUQUERQUE    PTSUNNY   74  20  13 VRB3      30.04F
EL PASO        MOSUNNY   75  31  19 E8        30.02F
$$


........................KEY........................
SKY/WX - SKY CONDITION/WEATHER
TMP    - TEMPERATURE IN FAHRENHEIT
DP     - DEW POINT IN FAHRENHEIT
RH     - RELATIVE HUMIDITY IN PERCENT
WIND   - DIRECTION AND SPEED IN MILES PER HOUR (MPH)
VRB    - VARIABLE WIND DIRECTION
PRES   - MEAN SEA LEVEL PRESSURE IN INCHES OF MERCURY
         F - FALLING PRESSURE   R - RISING PRESSURE
         S - STEADY PRESSURE
VSB    - VISIBILITY IN MILES
HX     - HEAT INDEX IN FAHRENHEIT
WCI    - WIND CHILL INDEX IN FAHRENHEIT
TC     - TEMPERATURE IN CELSIUS WHICH IS ALSO KNOWN AS
         TEMPERATURE IN CENTIGRADE
AFB    - AIR FORCE BASE
         LUKE AFB IS LUKE AIR FORCE BASE
         DAVIS-MONTHAN IS DAVIS-MONTHAN AIR FORCE BASE
NAS    - NAVAL AIR STATION
         EL CENTRO NAS IS EL CENTRO NAVAL AIR STATION
N/A    - NOT AVAILABLE




USA.gov is the U.S. government's official web portal to all federal, state and local government web resources and services.